Regional Weather Roundup
Issued by NWS Jackson, KY

Home | Current Version | Previous Version | Text Only | Print | Product List | Glossary On
Versions: 1 2 3 4 5 6 7 8 9 10 11 12 13 14 15 16 17 18 19 20 21 22 23 24 25 26 27 28 29 30 31 32 33 34 35 36 37 38 39 40 41 42 43 44 45 46 47 48 49 50
000
ASUS43 KJKL 242310
RWRJKL

EAST KENTUCKY HOURLY WEATHER ROUNDUP
NATIONAL WEATHER SERVICE JACKSON KY
700 PM EDT MON JUL 24 2017

NOTE: "FAIR" INDICATES FEW OR NO CLOUDS BELOW 12,000 FEET WITH
NO SIGNIFICANT WEATHER AND/OR OBSTRUCTIONS TO VISIBILITY.

* THESE REPORTS ARE NOT UNDER NWS QUALITY CONTROL AND MAY NOT
  REPORT WEATHER SUCH AS PRECIPITATION AND FOG.

KYZ079-080-083-085-087-088-110-112-115-119-120-250000
...EASTERN KENTUCKY...

CITY           SKY/WX    TMP DP  RH WIND       PRES   REMARKS
JACKSON        CLOUDY    73  70  90 CALM      29.99R FOG
LONDON           N/A     87  66  49 W10       29.97S
SOMERSET*        N/A     84  66  54 W9        29.98S
WILLIAMSBURG*    N/A     86  66  51 W6        29.98S
MIDDLESBORO*     N/A     87  68  52 CALM      29.98F HX  90
PIKE CO APT*     N/A     74  74 100 CALM      30.00R
BIG SANDY APT*   N/A     75  75  98 CALM      29.98R
MOREHEAD APT*    N/A     82  68  61 N5        29.98S
ASHLAND*         N/A     82  72  69 N3        29.92S
$$

KYZ035-036-041-042-044-050-067-078-099-250000
...CENTRAL KENTUCKY...

CITY           SKY/WX    TMP DP  RH WIND       PRES   REMARKS
MT STERLING*   CLOUDY    81  72  74 CALM      29.99R
FLEMING/MASON*   N/A     83  66  57 N7        29.98R
DANVILLE*      CLOUDY    73  72  94 S3        29.99S
LEXINGTON      PTSUNNY   81  71  71 CALM      29.97R
FRANKFORT        N/A     87  64  46 N7        29.95R
LOUISVILLE     PTSUNNY   88  67  49 NE15      29.94R HX  91
LEBANON*         N/A     82  72  69 CALM      29.96S
GLASGOW*         N/A     87  72  61 SW3       29.96R HX  93
BOWLING GREEN    N/A     89  71  55 SW7       29.94R HX  95
$$

KYZ091>093-OHZ055-061-077-WVZ005-015-034-035-042-250000
...SOUTHERN OHIO/WEST VIRGINIA...

CITY           SKY/WX    TMP DP  RH WIND       PRES   REMARKS
COVINGTON        N/A     82  68  62 N10       29.97R
COLUMBUS       PTSUNNY   75  61  61 N12       29.98R
DAYTON           N/A     75  62  64 N15       30.02R
WILMINGTON       N/A     78  67  68 N9        29.99R
HUNTINGTON       N/A     83  68  60 N5        29.94R
CHARLESTON       N/A     83  65  54 NW7       29.94R
PINEVILLE*       N/A     77  71  82 MISG      30.04R
BECKLEY          N/A     72  67  84 SW3       30.04R
BLUEFIELD        N/A     77  61  57 W5        30.06R
LOGAN CO APT*  MOCLDY    77  70  78 CALM      29.99R
$$

VAZ002-007-008-TNZ017-027-036-066-071-250000
...SOUTHWEST VIRGINIA/EAST TENNESSEE...

CITY           SKY/WX    TMP DP  RH WIND       PRES   REMARKS
WISE*          CLOUDY    79  63  57 SW9       30.08R
JONESVILLE*      N/A     86  66  51 SW7       30.02R
ABINGDON*        N/A     84  65  52 NW5       30.02S
BRISTOL          N/A     87  65  47 W7        29.99R
MORRISTOWN*    CLEAR     86  68  54 NW6       29.99R
SEVIERVILLE*   CLEAR     88  66  48 NW6       29.97S HX  90
KNOXVILLE      PTSUNNY   88  63  43 W5        29.97R
LAFOLLETTE*    CLEAR     84  70  61 CALM      30.02R
OAK RIDGE        N/A     90  66  45 W5        29.99R HX  92
CROSSVILLE       N/A     84  64  50 W3        30.05R
NASHVILLE      CLOUDY    90  72  55 E5        29.95R HX  97
$$

...KEY TO REMARKS...
VSB - VISIBILITY IN MILES
WCI - WIND CHILL INDEX
HX  - HEAT INDEX

$$



USA.gov is the U.S. government's official web portal to all federal, state and local government web resources and services.